Flag for Canada Weather past 2 weeks in Cranbrook, British Columbia, Canada

Now
95 °F

Passing clouds.


Feels Like: 90 °F
Forecast: 55 / 95 °F
Wind: 12 mph from West

Location: Cranbrook

Current Time: Jul 31, 2015 at 6:00:05 PM

Latest Report: Jul 31, 2015 at 5:00 PM


Visibility: 25 mi

Pressure: 29.95 "Hg (27.00 "Hg at 933m altitude)

Humidity: 9%

Dew point: 27 °F

Location of CranbrookLocation

Historic Weather in Cranbrook — Graph

°F

Cranbrook temperature yesterday

Maximum temperature yesterday: 90 °F (at 5:00 PM)
Minimum temperature yesterday: 52 °F (at 6:00 AM)
Average temperature yesterday: 70 °F

Past Weeks' High & Low Weather Summary

 TemperatureHumidityPressure
High95 °F (Jul 31, 5:00 PM)100% (Jul 26, 1:00 AM)30.25 "Hg (Jul 26, 1:00 AM)
Low41 °F (Jul 28, 5:00 AM)9% (Jul 31, 5:00 PM)29.66 "Hg (Jul 22, 12:00 AM)
Average65 °F50%29.96 "Hg
* Reported Jul 16 5:00 PM — Jul 31 5:00 PM, Cranbrook, Weather by CustomWeather, © 2015

Note: Actual official high and low records may vary slightly from our data, if they occured in-between our weather recording intervals... More about our weather records

Advertising

Cranbrook weather history for previous 24 hours

 ConditionsComfort  
Time TempWeatherWind HumidityBarometerVisibility
5:00 PM
Fri, Jul 31
95 °FPassing clouds.12 mph9%29.95 "Hg25 mi
4:00 PM93 °FPassing clouds.12 mph11%29.96 "Hg25 mi
3:00 PM91 °FPassing clouds.8 mph15%29.99 "Hg25 mi
2:00 PM88 °FPassing clouds.7 mph19%30.02 "Hg45 mi
1:00 PM84 °FPassing clouds.9 mph22%30.05 "Hg45 mi
12:00 PM77 °FPassing clouds.6 mph30%30.10 "Hg45 mi
11:00 AM73 °FSunny.5 mph33%30.12 "Hg45 mi
10:00 AM68 °FSunny.2 mph40%30.14 "Hg25 mi
9:00 AM64 °FPassing clouds.No wind46%30.15 "Hg25 mi
8:00 AM59 °FClear.3 mph51%30.15 "Hg25 mi
7:00 AM57 °FClear.7 mph51%30.15 "Hg45 mi
6:00 AM57 °FClear.7 mph51%30.14 "Hg25 mi
5:00 AM59 °FClear.8 mph51%30.13 "Hg25 mi
4:00 AM61 °FClear.6 mph48%30.13 "Hg25 mi
3:00 AM63 °FClear.7 mph42%30.12 "Hg25 mi
2:00 AM64 °FClear.6 mph40%30.11 "Hg25 mi
1:00 AM66 °FClear.7 mph37%30.11 "Hg25 mi
12:00 AM70 °FClear.5 mph33%30.11 "Hg25 mi
11:00 PM
Thu, Jul 30
73 °FSunny.9 mph29%30.10 "Hg25 mi
10:00 PM79 °FPassing clouds.5 mph20%30.08 "Hg25 mi
9:00 PM84 °FPassing clouds.5 mph16%30.06 "Hg25 mi
8:00 PM86 °FPassing clouds.7 mph14%30.07 "Hg25 mi
7:00 PM88 °FPassing clouds.8 mph13%30.06 "Hg25 mi
6:00 PM90 °FScattered clouds.3 mph13%30.07 "Hg25 mi
Weather by CustomWeather, © 2015

See weather overviewHow to use our weather pages